Location: Jaite
(41.2884°N, 81.5737°W)
Time: 00:36:47
(UTC+00:00)

USA 281 - Pass Details

Date: 15 November 2025
Orbit: 1079 x 1080 km, 106.0° (Epoch: 08 December)

Event Time Altitude Azimuth Distance (km) Brightness Sun altitude
Exits shadow 01:07:18 54° 339° (NNW) 1,291 3.6 -33.8°
Drops below altitude 10° 01:12:14 10° 337° (NNW) 2,927 5.7 -34.7°
Sets 01:14:45 0° 338° (NNW) 3,886 6.5 -35.2°
